Location: Kuppenheim
(48.8299°N, 8.2568°E)
Time: 08:26:09
(UTC+00:00)

Cosmos 1812 - Pass Details

Date: 20 June 2021
Orbit: 516 x 519 km, 82.5° (Epoch: 01 August)

Event Time Altitude Azimuth Distance (km) Brightness Sun altitude
Rises 02:03:16 0° 354° (N) 2,650 7.1 -9.9°
Reaches altitude 10° 02:05:28 10° 360° (N) 1,757 6.3 -9.7°
Maximum altitude 02:09:13 50° 77° (ENE) 663 3.6 -9.3°
Drops below altitude 10° 02:12:57 10° 154° (SSE) 1,742 5.1 -9.0°
Sets 02:15:07 0° 159° (SSE) 2,624 6.0 -8.7°
